"Sample Date","Sample Time","Sensor Name","Sample Value","Units","Flow Rate","Sample Interval","Sample Volume","Laser Status","Number Channels","Micron Size 0","Counts/Channel 0","Micron Size 1","Counts/Channel 1","Micron Size 2","Counts/Channel 2","Micron Size 3","Counts/Channel 3","Micron Size 4","Counts/Channel 4","Micron Size 5","Counts/Channel 5","Micron Size 6","Counts/Channel 6","Micron Size 7","Counts/Channel 7","Micron Size 8","Counts/Channel 8","Micron Size 9","Counts/Channel 9","Micron Size 10","Counts/Channel 10","Micron Size 11","Counts/Channel 11","Micron Size 12","Counts/Channel 12","Micron Size 13","Counts/Channel 13","Micron Size 14","Counts/Channel 14","Micron Size 15","Counts/Channel 15","Micron Size 16","Counts/Channel 16","Micron Size 17","Counts/Channel 17","Micron Size 18","Counts/Channel 18","Micron Size 19","Counts/Channel 19","Micron Size 20","Counts/Channel 20","Micron Size 21","Counts/Channel 21","Micron Size 22","Counts/Channel 22","Micron Size 23","Counts/Channel 23","Micron Size 24","Counts/Channel 24","Micron Size 25","Counts/Channel 25","Micron Size 26","Counts/Channel 26","Micron Size 27","Counts/Channel 27","Micron Size 28","Counts/Channel 28","Micron Size 29","Counts/Channel 29","Micron Size 30","Counts/Channel 30","Micron Size 31","Counts/Channel 31"
"07/02/06","17:00:01","AMMA06",69716.000,"cc",28284.578,6.00,2828.458,1,6,0.100,39236.000,0.200,24396.000,0.300,3735.000,0.500,1409.000,1.000,939.000,5.000,1.000
"07/02/06","17:00:07","AMMA06",69723.000,"cc",28307.770,6.00,2830.777,1,6,0.100,39146.000,0.200,24399.000,0.300,3791.000,0.500,1429.000,1.000,957.000,5.000,1.000
"07/02/06","17:00:13","AMMA06",69575.000,"cc",28337.723,6.00,2833.773,1,6,0.100,39126.000,0.200,24327.000,0.300,3822.000,0.500,1415.000,1.000,884.000,5.000,1.000
"07/02/06","17:00:19","AMMA06",69718.000,"cc",28308.930,6.00,2830.893,1,6,0.100,39051.000,0.200,24481.000,0.300,3833.000,0.500,1454.000,1.000,899.000,5.000,0
"07/02/06","17:00:25","AMMA06",69076.000,"cc",28297.703,6.00,2829.771,1,6,0.100,38379.000,0.200,24424.000,0.300,3866.000,0.500,1503.000,1.000,904.000,5.000,0
"07/02/06","17:00:31","AMMA06",68678.000,"cc",28312.957,6.00,2831.296,1,6,0.100,37942.000,0.200,24604.000,0.300,3702.000,0.500,1484.000,1.000,946.000,5.000,0
"07/02/06","17:00:37","AMMA06",68956.000,"cc",28312.205,6.00,2831.221,1,6,0.100,38294.000,0.200,24450.000,0.300,3845.000,0.500,1467.000,1.000,899.000,5.000,1.000
"07/02/06","17:00:43","AMMA06",68612.000,"cc",28348.287,6.00,2834.829,1,6,0.100,38014.000,0.200,24378.000,0.300,3849.000,0.500,1471.000,1.000,899.000,5.000,1.000
"07/02/06","17:00:49","AMMA06",68461.000,"cc",28289.770,6.00,2828.977,1,6,0.100,38108.000,0.200,24224.000,0.300,3813.000,0.500,1455.000,1.000,861.000,5.000,0
"07/02/06","17:00:55","AMMA06",68069.000,"cc",28331.918,6.00,2833.192,1,6,0.100,37654.000,0.200,24318.000,0.300,3725.000,0.500,1490.000,1.000,879.000,5.000,3.000
"07/02/06","17:01:01","AMMA06",67321.000,"cc",28324.217,6.00,2832.422,1,6,0.100,36758.000,0.200,24392.000,0.300,3855.000,0.500,1427.000,1.000,889.000,5.000,0
"07/02/06","17:01:07","AMMA06",67382.000,"cc",28315.004,6.00,2831.501,1,6,0.100,36714.000,0.200,24533.000,0.300,3791.000,0.500,1457.000,1.000,887.000,5.000,0
"07/02/06","17:01:13","AMMA06",66901.000,"cc",28343.885,6.00,2834.389,1,6,0.100,36856.000,0.200,23967.000,0.300,3715.000,0.500,1487.000,1.000,874.000,5.000,2.000
"07/02/06","17:01:19","AMMA06",66622.000,"cc",28317.680,6.00,2831.768,1,6,0.100,36516.000,0.200,24103.000,0.300,3662.000,0.500,1437.000,1.000,904.000,5.000,0
"07/02/06","17:01:25","AMMA06",66372.000,"cc",28334.578,6.00,2833.458,1,6,0.100,36450.000,0.200,23960.000,0.300,3617.000,0.500,1492.000,1.000,852.000,5.000,1.000
"07/02/06","17:01:31","AMMA06",66278.000,"cc",28278.328,6.00,2827.833,1,6,0.100,36350.000,0.200,23744.000,0.300,3814.000,0.500,1435.000,1.000,934.000,5.000,1.000
"07/02/06","17:01:37","AMMA06",66232.000,"cc",28331.029,6.00,2833.103,1,6,0.100,36346.000,0.200,23895.000,0.300,3714.000,0.500,1433.000,1.000,844.000,5.000,0
"07/02/06","17:01:43","AMMA06",66454.000,"cc",28305.809,6.00,2830.581,1,6,0.100,36471.000,0.200,23952.000,0.300,3722.000,0.500,1453.000,1.000,856.000,5.000,0
"07/02/06","17:01:49","AMMA06",67064.000,"cc",28297.291,6.00,2829.729,1,6,0.100,36956.000,0.200,23967.000,0.300,3720.000,0.500,1456.000,1.000,965.000,5.000,0
"07/02/06","17:01:55","AMMA06",67031.000,"cc",28382.945,6.00,2838.295,1,6,0.100,36828.000,0.200,24092.000,0.300,3741.000,0.500,1413.000,1.000,956.000,5.000,1.000
"07/02/06","17:02:01","AMMA06",66964.000,"cc",28274.371,6.00,2827.437,1,6,0.100,37004.000,0.200,23901.000,0.300,3663.000,0.500,1468.000,1.000,928.000,5.000,0
"07/02/06","17:02:07","AMMA06",67281.000,"cc",28306.893,6.00,2830.690,1,6,0.100,37096.000,0.200,24156.000,0.300,3678.000,0.500,1453.000,1.000,896.000,5.000,2.000
"07/02/06","17:02:13","AMMA06",66997.000,"cc",28368.035,6.00,2836.804,1,6,0.100,36911.000,0.200,24172.000,0.300,3598.000,0.500,1414.000,1.000,901.000,5.000,1.000
"07/02/06","17:02:19","AMMA06",66959.000,"cc",28311.043,6.00,2831.105,1,6,0.100,36812.000,0.200,24182.000,0.300,3573.000,0.500,1440.000,1.000,950.000,5.000,2.000
"07/02/06","17:02:25","AMMA06",66479.000,"cc",28297.254,6.00,2829.726,1,6,0.100,36662.000,0.200,23900.000,0.300,3571.000,0.500,1441.000,1.000,905.000,5.000,0
"07/02/06","17:02:31","AMMA06",67004.000,"cc",28263.981,6.00,2826.398,1,6,0.100,37014.000,0.200,23850.000,0.300,3746.000,0.500,1497.000,1.000,896.000,5.000,1.000
"07/02/06","17:02:37","AMMA06",66330.000,"cc",28324.818,6.00,2832.482,1,6,0.100,36565.000,0.200,23826.000,0.300,3591.000,0.500,1459.000,1.000,889.000,5.000,0
"07/02/06","17:02:43","AMMA06",66244.000,"cc",28324.576,6.00,2832.458,1,6,0.100,36309.000,0.200,23905.000,0.300,3675.000,0.500,1440.000,1.000,915.000,5.000,0
"07/02/06","17:02:49","AMMA06",66012.000,"cc",28317.400,6.00,2831.740,1,6,0.100,36040.000,0.200,24037.000,0.300,3631.000,0.500,1416.000,1.000,888.000,5.000,0
"07/02/06","17:02:55","AMMA06",65437.000,"cc",28338.766,6.00,2833.877,1,6,0.100,36075.000,0.200,23263.000,0.300,3717.000,0.500,1473.000,1.000,909.000,5.000,0
"07/02/06","17:03:01","AMMA06",65002.000,"cc",28310.535,6.00,2831.054,1,6,0.100,35597.000,0.200,23517.000,0.300,3583.000,0.500,1432.000,1.000,873.000,5.000,0
"07/02/06","17:03:07","AMMA06",65997.000,"cc",28302.666,6.00,2830.267,1,6,0.100,36320.000,0.200,23807.000,0.300,3559.000,0.500,1465.000,1.000,846.000,5.000,0
"07/02/06","17:03:13","AMMA06",65365.000,"cc",28353.301,6.00,2835.330,1,6,0.100,35797.000,0.200,23664.000,0.300,3606.000,0.500,1374.000,1.000,924.000,5.000,0
"07/02/06","17:03:19","AMMA06",64907.000,"cc",28324.147,6.00,2832.415,1,6,0.100,35557.000,0.200,23441.000,0.300,3622.000,0.500,1371.000,1.000,916.000,5.000,0
"07/02/06","17:03:25","AMMA06",64353.000,"cc",28314.984,6.00,2831.499,1,6,0.100,34707.000,0.200,23696.000,0.300,3712.000,0.500,1339.000,1.000,899.000,5.000,0
"07/02/06","17:03:31","AMMA06",64238.000,"cc",28352.672,6.00,2835.267,1,6,0.100,34847.000,0.200,23416.000,0.300,3607.000,0.500,1434.000,1.000,934.000,5.000,0
"07/02/06","17:03:37","AMMA06",63998.000,"cc",28288.168,6.00,2828.817,1,6,0.100,34531.000,0.200,23401.000,0.300,3741.000,0.500,1454.000,1.000,871.000,5.000,0
"07/02/06","17:03:43","AMMA06",63962.000,"cc",28344.859,6.00,2834.486,1,6,0.100,34391.000,0.200,23577.000,0.300,3662.000,0.500,1440.000,1.000,890.000,5.000,2.000
"07/02/06","17:03:49","AMMA06",64058.000,"cc",28268.473,6.00,2826.847,1,6,0.100,34860.000,0.200,23301.000,0.300,3555.000,0.500,1444.000,1.000,897.000,5.000,1.000
"07/02/06","17:03:55","AMMA06",64190.000,"cc",28322.406,6.00,2832.241,1,6,0.100,34604.000,0.200,23595.000,0.300,3682.000,0.500,1408.000,1.000,901.000,5.000,0
"07/02/06","17:04:01","AMMA06",63990.000,"cc",28358.113,6.00,2835.812,1,6,0.100,34437.000,0.200,23529.000,0.300,3648.000,0.500,1470.000,1.000,906.000,5.000,0
"07/02/06","17:04:07","AMMA06",63787.000,"cc",28298.297,6.00,2829.830,1,6,0.100,34266.000,0.200,23419.000,0.300,3672.000,0.500,1495.000,1.000,934.000,5.000,1.000
"07/02/06","17:04:13","AMMA06",64302.000,"cc",28302.127,6.00,2830.213,1,6,0.100,34505.000,0.200,23717.000,0.300,3745.000,0.500,1454.000,1.000,880.000,5.000,1.000
"07/02/06","17:04:19","AMMA06",63999.000,"cc",28340.947,6.00,2834.095,1,6,0.100,34116.000,0.200,23638.000,0.300,3878.000,0.500,1449.000,1.000,918.000,5.000,0
"07/02/06","17:04:25","AMMA06",63933.000,"cc",28314.076,6.00,2831.408,1,6,0.100,34432.000,0.200,23516.000,0.300,3635.000,0.500,1438.000,1.000,912.000,5.000,0
"07/02/06","17:04:31","AMMA06",65275.000,"cc",28302.676,6.00,2830.268,1,6,0.100,35027.000,0.200,24008.000,0.300,3840.000,0.500,1498.000,1.000,900.000,5.000,2.000
"07/02/06","17:04:37","AMMA06",64885.000,"cc",28337.459,6.00,2833.746,1,6,0.100,34743.000,0.200,23914.000,0.300,3838.000,0.500,1503.000,1.000,886.000,5.000,1.000
"07/02/06","17:04:43","AMMA06",64560.000,"cc",28342.332,6.00,2834.233,1,6,0.100,34374.000,0.200,24009.000,0.300,3803.000,0.500,1491.000,1.000,883.000,5.000,0
"07/02/06","17:04:49","AMMA06",65266.000,"cc",28321.859,6.00,2832.186,1,6,0.100,34906.000,0.200,24169.000,0.300,3834.000,0.500,1459.000,1.000,898.000,5.000,0
"07/02/06","17:04:55","AMMA06",65115.000,"cc",28273.299,6.00,2827.330,1,6,0.100,34706.000,0.200,24031.000,0.300,3939.000,0.500,1513.000,1.000,926.000,5.000,0
"07/02/06","17:05:01","AMMA06",64523.000,"cc",28322.762,6.00,2832.276,1,6,0.100,34379.000,0.200,24032.000,0.300,3678.000,0.500,1468.000,1.000,966.000,5.000,0
"07/02/06","17:05:07","AMMA06",65174.000,"cc",28284.375,6.00,2828.438,1,6,0.100,34703.000,0.200,24126.000,0.300,3896.000,0.500,1499.000,1.000,949.000,5.000,1.000
"07/02/06","17:05:13","AMMA06",65210.000,"cc",28355.473,6.00,2835.547,1,6,0.100,34758.000,0.200,24189.000,0.300,3892.000,0.500,1413.000,1.000,957.000,5.000,1.000
"07/02/06","17:05:19","AMMA06",65290.000,"cc",28292.408,6.00,2829.241,1,6,0.100,34750.000,0.200,24293.000,0.300,3882.000,0.500,1460.000,1.000,904.000,5.000,1.000
"07/02/06","17:05:25","AMMA06",65485.000,"cc",28294.672,6.00,2829.467,1,6,0.100,34841.000,0.200,24348.000,0.300,3886.000,0.500,1489.000,1.000,921.000,5.000,0
"07/02/06","17:05:31","AMMA06",65131.000,"cc",28340.902,6.00,2834.090,1,6,0.100,34655.000,0.200,24317.000,0.300,3839.000,0.500,1386.000,1.000,934.000,5.000,0
"07/02/06","17:05:37","AMMA06",65410.000,"cc",28320.332,6.00,2832.033,1,6,0.100,34768.000,0.200,24461.000,0.300,3831.000,0.500,1415.000,1.000,934.000,5.000,1.000
"07/02/06","17:05:43","AMMA06",64791.000,"cc",28314.350,6.00,2831.435,1,6,0.100,34642.000,0.200,23931.000,0.300,3871.000,0.500,1438.000,1.000,909.000,5.000,0
"07/02/06","17:05:49","AMMA06",65074.000,"cc",28321.494,6.00,2832.150,1,6,0.100,34852.000,0.200,24023.000,0.300,3841.000,0.500,1408.000,1.000,950.000,5.000,0
"07/02/06","17:05:55","AMMA06",64964.000,"cc",28345.660,6.00,2834.566,1,6,0.100,34529.000,0.200,24108.000,0.300,3876.000,0.500,1510.000,1.000,940.000,5.000,1.000
"07/02/06","17:06:01","AMMA06",64487.000,"cc",28380.410,6.00,2838.041,1,6,0.100,34152.000,0.200,24062.000,0.300,3884.000,0.500,1498.000,1.000,891.000,5.000,0
"07/02/06","17:06:07","AMMA06",64672.000,"cc",28317.174,6.00,2831.718,1,6,0.100,34252.000,0.200,24186.000,0.300,3812.000,0.500,1491.000,1.000,931.000,5.000,0
"07/02/06","17:06:13","AMMA06",64817.000,"cc",28300.615,6.00,2830.062,1,6,0.100,34191.000,0.200,24252.000,0.300,3912.000,0.500,1513.000,1.000,948.000,5.000,1.000
"07/02/06","17:06:19","AMMA06",64654.000,"cc",28320.527,6.00,2832.053,1,6,0.100,34030.000,0.200,24199.000,0.300,4009.000,0.500,1463.000,1.000,953.000,5.000,0
"07/02/06","17:06:25","AMMA06",64716.000,"cc",28320.440,6.00,2832.044,1,6,0.100,34120.000,0.200,24303.000,0.300,3855.000,0.500,1472.000,1.000,965.000,5.000,1.000
"07/02/06","17:06:31","AMMA06",65666.000,"cc",28292.725,6.00,2829.273,1,6,0.100,34843.000,0.200,24400.000,0.300,3967.000,0.500,1502.000,1.000,952.000,5.000,2.000
"07/02/06","17:06:37","AMMA06",65395.000,"cc",28316.201,6.00,2831.620,1,6,0.100,34487.000,0.200,24650.000,0.300,3919.000,0.500,1447.000,1.000,892.000,5.000,0
"07/02/06","17:06:43","AMMA06",65141.000,"cc",28299.125,6.00,2829.913,1,6,0.100,34517.000,0.200,24309.000,0.300,3853.000,0.500,1518.000,1.000,943.000,5.000,1.000
"07/02/06","17:06:49","AMMA06",65018.000,"cc",28312.070,6.00,2831.207,1,6,0.100,34719.000,0.200,24076.000,0.300,3805.000,0.500,1455.000,1.000,963.000,5.000,0
"07/02/06","17:06:55","AMMA06",65245.000,"cc",28322.471,6.00,2832.247,1,6,0.100,34423.000,0.200,24449.000,0.300,3921.000,0.500,1491.000,1.000,961.000,5.000,0
"07/02/06","17:07:01","AMMA06",65151.000,"cc",28314.203,6.00,2831.420,1,6,0.100,34584.000,0.200,24358.000,0.300,3841.000,0.500,1431.000,1.000,937.000,5.000,0
"07/02/06","17:07:07","AMMA06",65281.000,"cc",28298.434,6.00,2829.844,1,6,0.100,34862.000,0.200,24202.000,0.300,3833.000,0.500,1464.000,1.000,920.000,5.000,0
"07/02/06","17:07:13","AMMA06",64758.000,"cc",28308.690,6.00,2830.869,1,6,0.100,34223.000,0.200,24194.000,0.300,3939.000,0.500,1435.000,1.000,966.000,5.000,1.000
"07/02/06","17:07:19","AMMA06",65177.000,"cc",28314.004,6.00,2831.401,1,6,0.100,34423.000,0.200,24482.000,0.300,3917.000,0.500,1438.000,1.000,916.000,5.000,1.000
"07/02/06","17:07:25","AMMA06",64764.000,"cc",28311.299,6.00,2831.130,1,6,0.100,34126.000,0.200,24469.000,0.300,3847.000,0.500,1403.000,1.000,919.000,5.000,0
"07/02/06","17:07:31","AMMA06",65127.000,"cc",28319.654,6.00,2831.966,1,6,0.100,34403.000,0.200,24495.000,0.300,3881.000,0.500,1383.000,1.000,965.000,5.000,0
"07/02/06","17:07:37","AMMA06",64866.000,"cc",28335.811,6.00,2833.581,1,6,0.100,34251.000,0.200,24258.000,0.300,3957.000,0.500,1475.000,1.000,925.000,5.000,0
"07/02/06","17:07:43","AMMA06",64708.000,"cc",28281.342,6.00,2828.134,1,6,0.100,34139.000,0.200,24302.000,0.300,3969.000,0.500,1380.000,1.000,918.000,5.000,0
"07/02/06","17:07:49","AMMA06",65136.000,"cc",28294.107,6.00,2829.411,1,6,0.100,34395.000,0.200,24495.000,0.300,3918.000,0.500,1421.000,1.000,907.000,5.000,0
"07/02/06","17:07:55","AMMA06",64866.000,"cc",28340.209,6.00,2834.021,1,6,0.100,34386.000,0.200,24395.000,0.300,3679.000,0.500,1490.000,1.000,915.000,5.000,1.000
"07/02/06","17:08:01","AMMA06",65055.000,"cc",28351.209,6.00,2835.121,1,6,0.100,34679.000,0.200,24029.000,0.300,3873.000,0.500,1491.000,1.000,983.000,5.000,0
"07/02/06","17:08:07","AMMA06",64479.000,"cc",28276.629,6.00,2827.663,1,6,0.100,34556.000,0.200,23696.000,0.300,3842.000,0.500,1494.000,1.000,890.000,5.000,1.000
"07/02/06","17:08:13","AMMA06",64699.000,"cc",28295.426,6.00,2829.543,1,6,0.100,34539.000,0.200,23968.000,0.300,3863.000,0.500,1449.000,1.000,880.000,5.000,0
"07/02/06","17:08:19","AMMA06",64627.000,"cc",28342.332,6.00,2834.233,1,6,0.100,34611.000,0.200,23707.000,0.300,3846.000,0.500,1526.000,1.000,937.000,5.000,0
"07/02/06","17:08:25","AMMA06",64501.000,"cc",28328.809,6.00,2832.881,1,6,0.100,34410.000,0.200,23935.000,0.300,3713.000,0.500,1538.000,1.000,903.000,5.000,2.000
"07/02/06","17:08:31","AMMA06",64426.000,"cc",28315.395,6.00,2831.540,1,6,0.100,34099.000,0.200,24114.000,0.300,3766.000,0.500,1542.000,1.000,905.000,5.000,0
"07/02/06","17:08:37","AMMA06",64061.000,"cc",28329.643,6.00,2832.964,1,6,0.100,34327.000,0.200,23606.000,0.300,3761.000,0.500,1423.000,1.000,942.000,5.000,2.000
"07/02/06","17:08:43","AMMA06",64304.000,"cc",28347.266,6.00,2834.727,1,6,0.100,34277.000,0.200,23795.000,0.300,3786.000,0.500,1516.000,1.000,929.000,5.000,1.000
"07/02/06","17:08:49","AMMA06",64596.000,"cc",28320.018,6.00,2832.002,1,6,0.100,34493.000,0.200,23865.000,0.300,3824.000,0.500,1487.000,1.000,927.000,5.000,0
"07/02/06","17:08:55","AMMA06",64434.000,"cc",28281.303,6.00,2828.130,1,6,0.100,34672.000,0.200,23683.000,0.300,3698.000,0.500,1453.000,1.000,928.000,5.000,0
"07/02/06","17:09:01","AMMA06",63823.000,"cc",28341.635,6.00,2834.164,1,6,0.100,34191.000,0.200,23496.000,0.300,3733.000,0.500,1478.000,1.000,923.000,5.000,2.000
"07/02/06","17:09:07","AMMA06",63425.000,"cc",28296.494,6.00,2829.650,1,6,0.100,33960.000,0.200,23318.000,0.300,3794.000,0.500,1476.000,1.000,876.000,5.000,1.000
"07/02/06","17:09:13","AMMA06",63465.000,"cc",28311.773,6.00,2831.178,1,6,0.100,33717.000,0.200,23597.000,0.300,3775.000,0.500,1463.000,1.000,913.000,5.000,0
"07/02/06","17:09:19","AMMA06",63512.000,"cc",28343.740,6.00,2834.374,1,6,0.100,33905.000,0.200,23677.000,0.300,3630.000,0.500,1343.000,1.000,957.000,5.000,0
"07/02/06","17:09:25","AMMA06",64049.000,"cc",28312.725,6.00,2831.273,1,6,0.100,34233.000,0.200,23724.000,0.300,3734.000,0.500,1481.000,1.000,876.000,5.000,1.000
"07/02/06","17:09:31","AMMA06",63690.000,"cc",28275.143,6.00,2827.514,1,6,0.100,34238.000,0.200,23306.000,0.300,3828.000,0.500,1452.000,1.000,866.000,5.000,0
"07/02/06","17:09:37","AMMA06",64161.000,"cc",28324.389,6.00,2832.439,1,6,0.100,34274.000,0.200,23740.000,0.300,3745.000,0.500,1465.000,1.000,937.000,5.000,0
"07/02/06","17:09:43","AMMA06",63260.000,"cc",28309.166,6.00,2830.917,1,6,0.100,33953.000,0.200,23201.000,0.300,3730.000,0.500,1479.000,1.000,896.000,5.000,1.000
"07/02/06","17:09:49","AMMA06",63270.000,"cc",28349.481,6.00,2834.948,1,6,0.100,34020.000,0.200,23282.000,0.300,3634.000,0.500,1405.000,1.000,927.000,5.000,2.000
"07/02/06","17:09:55","AMMA06",63502.000,"cc",28335.447,6.00,2833.545,1,6,0.100,34112.000,0.200,23265.000,0.300,3757.000,0.500,1435.000,1.000,932.000,5.000,1.000
"07/02/06","17:10:01","AMMA06",63447.000,"cc",28298.027,6.00,2829.803,1,6,0.100,34116.000,0.200,23253.000,0.300,3703.000,0.500,1450.000,1.000,925.000,5.000,0
"07/02/06","17:10:07","AMMA06",63706.000,"cc",28316.297,6.00,2831.630,1,6,0.100,34228.000,0.200,23359.000,0.300,3693.000,0.500,1451.000,1.000,974.000,5.000,1.000
"07/02/06","17:10:13","AMMA06",63381.000,"cc",28309.629,6.00,2830.963,1,6,0.100,33907.000,0.200,23384.000,0.300,3675.000,0.500,1478.000,1.000,936.000,5.000,1.000
"07/02/06","17:10:19","AMMA06",63336.000,"cc",28301.324,6.00,2830.133,1,6,0.100,34217.000,0.200,23190.000,0.300,3597.000,0.500,1445.000,1.000,887.000,5.000,0
"07/02/06","17:10:25","AMMA06",63482.000,"cc",28318.572,6.00,2831.857,1,6,0.100,34310.000,0.200,23234.000,0.300,3646.000,0.500,1428.000,1.000,863.000,5.000,1.000
"07/02/06","17:10:31","AMMA06",63638.000,"cc",28320.035,6.00,2832.004,1,6,0.100,34376.000,0.200,23196.000,0.300,3672.000,0.500,1530.000,1.000,864.000,5.000,0
"07/02/06","17:10:37","AMMA06",63343.000,"cc",28341.602,6.00,2834.160,1,6,0.100,34131.000,0.200,23279.000,0.300,3631.000,0.500,1409.000,1.000,893.000,5.000,0
"07/02/06","17:10:43","AMMA06",63440.000,"cc",28304.881,6.00,2830.488,1,6,0.100,34124.000,0.200,23264.000,0.300,3668.000,0.500,1493.000,1.000,889.000,5.000,2.000
"07/02/06","17:10:49","AMMA06",63412.000,"cc",28339.545,6.00,2833.955,1,6,0.100,34226.000,0.200,23146.000,0.300,3689.000,0.500,1434.000,1.000,917.000,5.000,0
"07/02/06","17:10:55","AMMA06",62934.000,"cc",28302.393,6.00,2830.240,1,6,0.100,33973.000,0.200,22953.000,0.300,3662.000,0.500,1436.000,1.000,910.000,5.000,0
"07/02/06","17:11:01","AMMA06",63151.000,"cc",28270.654,6.00,2827.066,1,6,0.100,33885.000,0.200,23294.000,0.300,3592.000,0.500,1480.000,1.000,900.000,5.000,0
"07/02/06","17:11:07","AMMA06",63205.000,"cc",28360.498,6.00,2836.050,1,6,0.100,34060.000,0.200,23186.000,0.300,3601.000,0.500,1452.000,1.000,905.000,5.000,1.000
"07/02/06","17:11:13","AMMA06",62979.000,"cc",28304.975,6.00,2830.498,1,6,0.100,33648.000,0.200,23254.000,0.300,3710.000,0.500,1517.000,1.000,850.000,5.000,0
"07/02/06","17:11:19","AMMA06",62689.000,"cc",28272.586,6.00,2827.259,1,6,0.100,33980.000,0.200,22756.000,0.300,3614.000,0.500,1405.000,1.000,933.000,5.000,1.000
"07/02/06","17:11:25","AMMA06",63146.000,"cc",28326.881,6.00,2832.688,1,6,0.100,33912.000,0.200,23082.000,0.300,3765.000,0.500,1477.000,1.000,910.000,5.000,0
"07/02/06","17:11:31","AMMA06",62893.000,"cc",28317.910,6.00,2831.791,1,6,0.100,33646.000,0.200,23081.000,0.300,3702.000,0.500,1536.000,1.000,926.000,5.000,2.000
"07/02/06","17:11:37","AMMA06",63129.000,"cc",28283.092,6.00,2828.309,1,6,0.100,33544.000,0.200,23326.000,0.300,3797.000,0.500,1507.000,1.000,954.000,5.000,1.000
"07/02/06","17:11:43","AMMA06",62283.000,"cc",28377.559,6.00,2837.756,1,6,0.100,33583.000,0.200,22720.000,0.300,3580.000,0.500,1440.000,1.000,959.000,5.000,1.000
"07/02/06","17:11:49","AMMA06",62383.000,"cc",28382.334,6.00,2838.234,1,6,0.100,33222.000,0.200,23075.000,0.300,3691.000,0.500,1480.000,1.000,914.000,5.000,1.000
"07/02/06","17:11:55","AMMA06",62538.000,"cc",28327.617,6.00,2832.762,1,6,0.100,33228.000,0.200,23128.000,0.300,3707.000,0.500,1508.000,1.000,966.000,5.000,1.000
"07/02/06","17:12:01","AMMA06",62107.000,"cc",28273.432,6.00,2827.343,1,6,0.100,33193.000,0.200,22763.000,0.300,3818.000,0.500,1457.000,1.000,876.000,5.000,0
"07/02/06","17:12:07","AMMA06",62157.000,"cc",28318.063,6.00,2831.806,1,6,0.100,33045.000,0.200,23086.000,0.300,3730.000,0.500,1430.000,1.000,866.000,5.000,0
"07/02/06","17:12:13","AMMA06",62185.000,"cc",28299.232,6.00,2829.923,1,6,0.100,33241.000,0.200,22696.000,0.300,3835.000,0.500,1482.000,1.000,930.000,5.000,1.000
"07/02/06","17:12:19","AMMA06",62894.000,"cc",28310.975,6.00,2831.098,1,6,0.100,33470.000,0.200,23427.000,0.300,3628.000,0.500,1452.000,1.000,916.000,5.000,1.000
"07/02/06","17:12:25","AMMA06",62459.000,"cc",28294.092,6.00,2829.409,1,6,0.100,33428.000,0.200,22895.000,0.300,3709.000,0.500,1495.000,1.000,932.000,5.000,0
"07/02/06","17:12:31","AMMA06",62898.000,"cc",28339.988,6.00,2833.999,1,6,0.100,33486.000,0.200,23139.000,0.300,3789.000,0.500,1555.000,1.000,927.000,5.000,2.000
"07/02/06","17:12:37","AMMA06",62592.000,"cc",28321.795,6.00,2832.180,1,6,0.100,33056.000,0.200,23375.000,0.300,3780.000,0.500,1508.000,1.000,873.000,5.000,0
"07/02/06","17:12:43","AMMA06",62588.000,"cc",28289.977,6.00,2828.998,1,6,0.100,33388.000,0.200,23086.000,0.300,3634.000,0.500,1522.000,1.000,957.000,5.000,1.000
"07/02/06","17:12:49","AMMA06",62917.000,"cc",28337.299,6.00,2833.730,1,6,0.100,32970.000,0.200,23664.000,0.300,3794.000,0.500,1501.000,1.000,988.000,5.000,0
"07/02/06","17:12:55","AMMA06",62862.000,"cc",28343.482,6.00,2834.348,1,6,0.100,33528.000,0.200,23220.000,0.300,3741.000,0.500,1457.000,1.000,916.000,5.000,0
"07/02/06","17:13:01","AMMA06",62929.000,"cc",28278.350,6.00,2827.835,1,6,0.100,33377.000,0.200,23296.000,0.300,3803.000,0.500,1465.000,1.000,988.000,5.000,0
"07/02/06","17:13:07","AMMA06",62762.000,"cc",28319.799,6.00,2831.980,1,6,0.100,33515.000,0.200,23092.000,0.300,3757.000,0.500,1476.000,1.000,921.000,5.000,1.000
"07/02/06","17:13:13","AMMA06",62661.000,"cc",28318.221,6.00,2831.822,1,6,0.100,33285.000,0.200,23278.000,0.300,3713.000,0.500,1421.000,1.000,963.000,5.000,1.000
"07/02/06","17:13:19","AMMA06",62580.000,"cc",28336.258,6.00,2833.626,1,6,0.100,33053.000,0.200,23331.000,0.300,3803.000,0.500,1486.000,1.000,907.000,5.000,0
"07/02/06","17:13:25","AMMA06",62655.000,"cc",28353.143,6.00,2835.315,1,6,0.100,33222.000,0.200,23282.000,0.300,3776.000,0.500,1497.000,1.000,878.000,5.000,0
"07/02/06","17:13:31","AMMA06",63141.000,"cc",28289.811,6.00,2828.981,1,6,0.100,33530.000,0.200,23410.000,0.300,3815.000,0.500,1477.000,1.000,909.000,5.000,0
"07/02/06","17:13:37","AMMA06",62534.000,"cc",28332.762,6.00,2833.276,1,6,0.100,33183.000,0.200,23178.000,0.300,3788.000,0.500,1454.000,1.000,930.000,5.000,1.000
"07/02/06","17:13:43","AMMA06",62594.000,"cc",28338.354,6.00,2833.835,1,6,0.100,33284.000,0.200,23022.000,0.300,3831.000,0.500,1513.000,1.000,942.000,5.000,2.000
"07/02/06","17:13:49","AMMA06",63080.000,"cc",28316.127,6.00,2831.613,1,6,0.100,33567.000,0.200,23320.000,0.300,3816.000,0.500,1463.000,1.000,914.000,5.000,0
"07/02/06","17:13:55","AMMA06",62828.000,"cc",28349.186,6.00,2834.919,1,6,0.100,33423.000,0.200,23266.000,0.300,3773.000,0.500,1433.000,1.000,933.000,5.000,0
"07/02/06","17:14:01","AMMA06",62137.000,"cc",28302.107,6.00,2830.211,1,6,0.100,32949.000,0.200,22945.000,0.300,3764.000,0.500,1509.000,1.000,969.000,5.000,1.000